Location: Anuling
(14.1239°N, 120.8922°E)
Time: 13:57:15
(UTC+00:00)

Helios 1A Rocket - Visible Passes

Search period start: 19 April 2026 00:00
Search period end: 29 April 2026 00:00
Orbit: 412 x 420 km, 98.3° (Epoch: 19 April)

Date Brightness Start Highest point End Pass type
(mag) Time Alt. Az. Time Alt. Az. Time Alt. Az.
19 Apr 3.1 11:06:41 10° NE 11:09:05 28° E 11:09:05 28° E visible
20 Apr 4.0 11:53:04 10° NNW 11:55:56 32° WNW 11:55:59 32° WNW visible
21 Apr 3.3 11:07:45 10° NE 11:09:54 27° ENE 11:09:54 27° ENE visible
22 Apr 4.0 11:54:00 10° N 11:56:42 32° WNW 11:56:42 32° WNW visible
23 Apr 3.4 11:08:35 10° NE 11:10:31 25° ENE 11:10:31 25° ENE visible
24 Apr 4.0 11:54:40 10° N 11:57:11 32° WNW 11:57:11 32° WNW visible
25 Apr 3.6 11:09:11 10° NE 11:10:55 23° ENE 11:10:55 23° ENE visible
26 Apr 4.0 11:55:05 10° N 11:57:29 32° NW 11:57:29 32° NW visible
27 Apr 3.7 11:09:31 10° NE 11:11:05 21° ENE 11:11:05 21° ENE visible
28 Apr 4.0 11:55:15 10° N 11:57:33 32° NW 11:57:33 32° NW visible
